Location: ???????
(54.9996°N, 37.9529°E)
Time: 10:57:50
(UTC+00:00)

SWAS - Pass Details

Date: 14 April 2024
Orbit: 561 x 572 km, 69.9° (Epoch: 18 May)

Event Time Altitude Azimuth Distance (km) Brightness Sun altitude
Rises 00:28:28 0° 324° (NW) 2,783 8.0 -15.3°
Reaches altitude 10° 00:30:41 10° 325° (NW) 1,884 7.1 -15.1°
Maximum altitude 00:34:54 86° 54° (NE) 581 4.4 -14.7°
Drops below altitude 10° 00:39:07 10° 144° (SE) 1,880 7.0 -14.2°
Sets 00:41:20 0° 145° (SE) 2,776 7.9 -14.0°
